Theta_e
303 303 304 305 303 302 303 298 299 302 303 300 298 303 304 307 309 307 309 310 312 313 314 314 313 317 317 315 316 321 320 310 318 318 318 321 322 321 314 318 317 312 315 320
304 305 305 304 304 303 304 297 297 303 302 302 301 303 305 306 309 308 308 309 312 312 313 313 316 316 316 314 316 321 318 315 315 316 317 317 319 320 316 318 314 319 319 321
304 304 304 304 303 303 304 298 300 297 299 298 303 303 303 307 308 310 308 308 310 311 312 312 314 316 315 312 316 318 314 313 315 319 319 318 317 318 319 320 321 322 320 319
304 304 304 304 304 303 303 298 301 302 300 301 304 302 302 307 307 306 308 311 308 308 311 311 312 312 311 311 313 310 311 316 316 317 317 318 319 319 319 318 321 322 323 322
305 304 304 304 304 303 303 300 304 303 303 303 304 302 302 304 304 305 307 311 308 306 308 309 309 308 310 310 310 309 308 315 315 317 318 318 319 319 320 320 318 318 321 320
305 305 304 304 304 303 303 303 303 302 304 303 304 303 303 303 303 304 308 307 307 306 308 306 305 304 305 307 309 309 309 313 315 318 317 318 319 318 319 319 318 319 319 320
304 304 304 304 304 304 303 303 303 304 305 305 304 304 303 303 303 304 305 304 304 305 304 304 304 304 305 306 307 307 309 312 313 316 317 321 318 318 320 319 320 318 318 319
304 304 305 305 304 304 304 304 303 303 303 303 303 303 303 302 301 301 302 303 302 301 304 306 306 305 308 308 308 308 308 309 313 317 318 317 318 328 334 334 331 321 320 320
304 305 305 305 304 304 305 304 304 303 304 304 302 303 302 302 301 302 302 301 300 304 303 306 309 308 309 312 312 307 308 309 312 315 320 322 322 333 334 335 338 329 329 321
302 304 305 305 305 304 304 304 303 303 304 303 301 303 302 301 303 304 301 301 303 303 306 308 308 308 310 311 314 311 310 311 312 314 320 320 320 332 335 333 331 337 336 338
301 304 305 305 305 305 304 303 303 303 303 303 303 303 303 303 303 303 301 301 301 303 306 307 306 310 310 310 308 311 311 314 314 314 319 319 327 331 340 334 334 336 336 339
301 303 305 306 305 305 305 304 303 303 303 303 302 302 302 302 302 302 302 304 301 306 305 306 307 309 310 309 312 311 314 316 319 314 315 317 329 331 330 330 335 335 334 335
302 304 306 306 306 305 306 305 304 302 303 300 299 301 302 302 302 302 303 303 302 304 301 303 306 311 310 308 311 314 313 313 317 320 321 325 329 329 329 331 332 331 332 334
303 305 306 306 306 306 306 307 305 302 302 302 300 302 301 303 302 302 302 302 301 303 306 307 308 309 308 309 310 311 311 311 314 318 320 329 330 327 327 331 330 330 330 330
305 306 306 307 307 307 306 306 306 305 301 303 303 302 303 302 302 301 301 302 301 302 306 308 310 309 309 309 309 310 309 310 313 316 319 326 328 326 326 331 331 331 331 332
307 306 307 307 307 307 306 303 302 303 303 303 306 301 303 304 302 300 300 300 301 302 305 306 308 309 307 309 312 311 312 312 315 318 321 325 326 327 327 330 329 328 330 331
307 307 308 307 308 307 304 304 305 303 303 303 305 306 303 304 304 304 302 301 302 303 305 307 307 307 309 306 311 310 311 310 314 320 323 329 327 328 325 326 329 330 329 328
308 307 308 308 308 307 306 306 305 304 302 302 306 307 305 308 309 309 304 303 303 307 307 311 311 311 309 309 309 310 312 309 313 321 325 326 325 324 324 324 325 328 329 329
308 308 307 307 306 307 306 306 305 303 301 303 304 307 309 305 309 310 311 312 314 311 313 314 312 310 310 312 317 321 319 314 314 325 325 324 326 325 325 325 324 324 324 326
309 308 306 307 307 308 305 306 305 304 303 300 302 303 308 307 313 315 315 314 315 315 314 313 312 312 314 317 319 320 323 324 322 324 325 325 325 325 325 325 325 324 323 325
309 303 303 307 308 309 309 306 304 301 303 299 301 303 307 308 312 314 313 313 310 312 314 315 313 315 317 319 321 322 323 322 321 321 322 321 322 323 324 324 324 324 324 323
307 306 306 307 307 312 314 313 308 307 310 306 307 308 305 308 312 313 312 309 309 316 315 314 314 320 319 320 320 322 323 323 324 324 324 324 324 324 324 323 323 323 324 324
309 306 308 311 312 316 318 317 317 321 319 316 315 319 315 312 313 314 317 319 319 316 314 312 319 320 318 315 315 314 314 315 321 324 323 322 321 320 322 323 324 325 324 325
307 311 311 315 317 317 317 316 316 316 317 316 316 317 318 317 315 316 320 317 315 318 316 320 318 316 314 312 311 310 310 311 313 315 317 318 315 314 314 317 320 322 322 321
310 311 312 314 314 313 313 313 313 312 314 313 315 314 313 315 317 317 315 317 315 315 321 318 316 315 313 311 310 308 308 308 307 309 310 314 314 312 311 311 312 313 312 312
313 312 313 313 312 312 311 309 308 308 312 313 314 317 316 318 318 319 320 315 317 320 319 317 316 316 312 309 307 306 305 305 306 306 306 307 307 309 309 309 309 308 307 306
314 313 308 309 308 309 309 308 307 305 311 315 315 316 318 316 317 316 314 316 315 314 312 309 310 309 308 306 304 303 303 303 303 303 304 304 306 307 307 308 307 306 305 304
Wind_Speed
27 26 26 27 26 28 17 4 4 17 22 5 2 4 9 9 12 7 5 5 3 2 4 4 5 4 4 10 7 4 2 2 7 6 2 7 22 12 8 6 10 5 4 9
26 25 25 24 21 20 12 3 2 9 10 4 4 6 7 5 11 9 7 5 4 4 4 3 5 5 3 12 9 4 5 2 2 5 6 2 5 10 8 14 2 16 8 8
27 25 23 23 18 15 9 3 4 4 4 1 3 5 5 8 8 4 9 6 6 5 5 4 3 6 6 8 6 8 2 2 3 4 1 4 6 5 9 15 13 15 18 11
24 23 23 20 16 12 5 2 2 1 4 3 6 2 4 8 6 6 5 4 10 6 3 5 4 6 4 5 7 5 4 0 2 2 11 6 11 14 12 12 21 15 17 21
22 21 21 20 16 9 2 1 2 1 4 7 8 4 3 5 7 3 4 4 12 13 3 2 3 6 3 3 6 5 4 1 1 3 9 12 11 13 15 14 11 8 20 14
22 21 21 19 15 6 2 3 4 2 2 2 3 2 3 6 10 9 3 6 10 10 3 4 7 8 7 8 1 3 3 3 2 4 4 10 13 9 14 8 8 11 16 10
22 21 20 18 13 9 6 6 3 2 3 2 5 9 10 13 8 10 13 10 7 3 6 7 5 5 10 10 13 9 2 2 3 4 4 7 4 8 8 17 18 15 9 7
22 21 19 18 16 11 9 12 3 2 5 5 10 11 8 7 8 6 8 11 6 6 4 4 6 4 2 8 15 15 15 4 3 4 5 11 18 4 5 2 8 8 15 10
23 22 21 19 17 14 13 13 13 3 4 5 8 5 1 6 6 5 4 6 6 1 2 1 3 3 3 4 5 14 12 15 4 1 6 7 1 2 8 3 6 10 7 16
27 25 23 22 19 16 11 8 10 6 4 6 7 5 6 3 3 4 4 5 5 2 2 3 3 4 3 4 3 1 4 6 15 12 6 7 4 9 5 7 7 16 10 14
30 28 26 25 24 20 13 11 13 9 3 8 12 13 11 9 5 4 2 4 2 1 1 2 3 4 3 4 5 5 8 8 5 7 6 18 2 5 3 4 8 12 17 17
32 29 27 26 25 24 18 10 12 15 5 7 22 28 30 28 25 8 4 3 2 1 1 2 2 3 2 4 4 3 8 9 4 10 7 6 4 8 7 7 11 10 16 16
35 31 28 27 25 23 20 17 16 8 3 6 6 9 20 24 33 30 6 4 5 4 5 3 3 7 3 4 5 4 6 5 6 9 9 9 7 4 4 7 6 11 11 6
37 34 28 27 24 21 18 18 16 10 1 3 6 6 11 11 15 27 35 19 4 3 4 4 4 3 4 3 5 5 7 9 7 8 17 3 5 2 3 7 6 7 3 13
37 40 29 25 21 19 16 18 19 20 6 3 7 21 8 7 19 20 24 21 13 5 3 3 3 3 3 4 6 11 6 10 6 9 9 5 2 3 4 4 3 7 5 14
43 41 33 26 15 10 4 3 3 11 16 2 3 5 4 3 10 14 11 10 6 4 3 3 3 2 3 4 6 11 12 13 15 16 9 4 5 0 2 3 6 6 6 8
46 42 31 19 11 13 5 4 3 12 17 1 3 3 4 5 4 3 3 10 4 4 3 4 4 6 7 4 13 28 17 20 17 12 13 4 2 3 2 1 7 5 8 8
46 32 18 9 8 9 10 17 9 18 4 1 2 4 4 3 2 1 4 4 3 4 3 3 4 2 4 5 13 22 26 22 15 14 9 4 8 6 7 7 8 13 10 7
34 15 2 5 4 1 1 5 16 12 3 1 1 3 3 5 3 2 2 3 3 3 3 3 3 2 4 13 18 18 8 11 7 12 11 10 10 12 12 14 15 14 12 10
15 3 2 2 4 3 15 3 2 2 1 1 2 2 3 2 2 2 3 1 2 2 2 3 2 3 14 11 13 13 9 12 15 14 9 10 13 10 13 14 13 8 2 6
7 6 2 7 4 4 1 2 2 1 2 2 3 3 3 2 2 2 2 3 3 2 3 5 4 6 11 11 10 13 15 16 16 16 11 8 10 8 10 9 7 4 4 6
11 11 7 4 3 1 2 3 1 2 2 4 3 3 4 3 2 2 2 2 2 3 5 4 5 10 16 20 20 20 18 16 17 16 9 8 9 9 7 6 5 6 5 8
2 1 1 3 4 6 7 9 4 5 4 1 3 2 2 2 1 2 2 4 4 3 4 5 6 14 17 19 19 22 22 23 19 14 14 14 14 19 13 10 11 16 16 15
4 5 7 5 5 6 3 7 6 6 5 7 2 1 2 2 3 3 5 4 4 5 5 10 11 13 14 16 15 15 15 16 17 17 18 19 19 19 26 22 18 20 15 18
4 5 7 5 5 4 6 6 4 7 6 3 3 3 2 3 4 4 5 6 5 5 6 8 8 11 9 10 12 14 17 18 16 13 12 14 18 14 17 24 24 24 26 26
4 7 5 7 4 12 12 10 9 10 7 2 3 5 5 7 4 6 8 4 7 6 6 6 4 10 10 9 9 8 10 13 12 17 20 21 17 13 15 26 26 26 27 27
5 4 2 3 3 4 5 7 9 9 8 4 4 7 7 4 5 7 6 5 5 8 8 6 8 7 8 8 13 12 16 15 18 20 21 18 19 25 25 16 21 27 27 26
Wind_Direction
341 340 341 342 344 344 350 21 345 339 354 49 29 339 315 287 343 351 324 335 22 19 2 346 359 48 38 356 322 21 358 94 218 200 201 226 214 199 156 162 222 248 181 245
339 338 340 344 344 349 337 352 275 344 9 58 343 316 299 329 344 336 338 333 19 351 17 8 23 17 72 11 12 36 332 358 80 48 303 164 192 214 184 216 114 219 200 243
347 344 347 346 345 347 339 25 349 325 31 59 9 333 304 337 352 336 339 313 40 6 12 9 357 2 12 334 14 13 52 90 103 217 299 355 306 275 204 207 225 232 231 260
350 350 348 349 346 345 323 31 305 44 317 335 327 302 273 318 350 347 15 342 15 356 351 348 23 3 346 325 9 14 74 84 348 245 285 252 247 255 264 234 225 221 240 240
347 350 352 354 349 347 331 322 303 338 274 282 304 317 307 327 340 292 329 342 340 333 292 51 337 8 333 276 339 22 353 265 121 278 267 296 281 264 256 249 240 258 263 254
342 342 347 351 352 349 310 262 266 173 267 285 286 260 283 310 322 289 188 320 321 322 51 294 248 219 243 242 295 329 312 161 71 262 305 320 297 254 234 231 201 211 242 230
342 340 337 338 340 324 262 271 279 266 282 249 272 283 282 287 280 269 292 296 284 277 329 296 277 225 235 246 249 198 233 204 152 239 313 245 246 311 283 240 233 215 223 236
336 334 331 330 330 327 290 272 239 207 276 277 283 277 272 309 319 277 249 268 262 332 320 335 332 334 277 239 233 215 206 178 249 200 213 297 304 345 22 59 287 261 220 215
329 325 324 322 319 322 294 285 261 250 281 214 261 279 266 297 288 283 274 309 312 103 90 84 240 243 261 291 278 223 194 207 223 160 205 228 260 152 255 194 254 13 325 222
321 316 315 312 308 309 305 273 267 249 256 247 221 230 267 192 263 266 301 304 333 70 182 231 239 252 256 252 254 182 150 192 212 228 249 279 241 306 288 196 288 321 318 289
324 314 309 307 304 294 288 266 266 234 254 259 249 246 248 255 226 236 291 345 344 22 183 220 243 238 253 292 247 204 180 174 193 208 235 237 31 311 203 333 314 304 300 279
328 319 308 303 299 297 283 261 263 253 228 265 275 263 249 241 239 246 214 242 311 289 198 249 294 284 256 244 276 221 232 221 206 199 214 234 166 213 263 280 285 301 291 284
330 321 310 302 295 290 283 254 258 255 269 283 253 240 258 247 237 229 236 224 214 232 206 207 228 248 244 228 245 259 252 252 241 274 261 224 217 257 259 289 283 302 282 301
330 324 315 307 290 283 276 270 246 203 226 278 282 293 262 266 248 219 216 225 223 232 200 229 228 248 222 250 280 281 251 324 270 286 257 252 192 251 291 294 9 310 316 58
330 329 321 310 293 283 278 275 268 236 172 265 297 307 293 292 224 205 205 211 225 240 277 251 241 235 242 229 246 250 198 237 212 233 243 207 232 302 301 291 33 315 9 66
331 329 320 311 292 270 256 320 278 233 202 271 285 302 292 297 197 197 190 200 205 211 214 232 231 187 188 252 249 248 221 223 240 257 277 217 149 268 342 271 50 24 31 52
333 332 323 304 256 209 162 203 210 179 177 241 287 281 275 302 183 168 157 184 196 196 222 234 239 234 211 242 257 271 260 261 248 234 244 196 198 190 356 57 69 82 52 58
335 337 340 357 153 199 233 250 241 169 129 223 282 280 327 331 289 231 171 153 208 213 236 224 240 224 212 256 253 261 258 231 247 256 198 166 147 119 69 66 47 64 52 27
337 345 66 85 69 125 30 105 172 153 96 259 266 301 308 349 276 256 253 181 231 213 239 242 320 265 244 268 291 324 75 184 221 129 115 122 115 94 78 63 54 43 34 7
341 22 74 53 351 114 125 74 77 17 176 67 249 295 269 324 304 310 319 354 315 281 285 286 259 262 264 326 334 345 18 104 95 95 109 105 78 83 80 73 61 53 356 201
12 25 33 319 327 197 201 116 133 191 261 242 247 228 270 211 271 305 360 358 348 309 308 348 324 331 338 360 339 345 76 78 87 95 52 49 74 75 78 76 98 103 46 45
317 293 305 311 340 296 350 1 177 211 270 193 235 237 212 265 238 358 10 351 290 340 333 356 359 2 354 12 24 31 43 58 57 64 51 67 70 78 91 90 73 75 91 68
99 71 38 25 349 17 7 352 326 330 317 246 248 226 253 224 215 256 272 351 13 330 19 3 2 10 12 20 24 27 29 33 42 62 68 62 59 56 54 61 61 77 66 63
55 18 12 36 7 360 333 328 308 290 297 315 287 34 6 346 29 343 360 10 18 19 21 32 19 16 24 27 23 31 31 34 41 44 43 45 48 44 38 37 45 67 62 57
51 38 18 11 319 293 314 296 283 341 321 340 357 27 60 0 49 20 15 12 22 8 28 56 8 358 9 34 42 37 37 40 42 47 45 54 56 49 41 44 52 56 53 52
53 38 355 318 351 1 8 359 347 344 345 3 21 20 23 33 15 6 18 17 23 13 349 7 348 358 10 23 33 28 39 42 52 36 30 30 36 43 55 51 50 57 61 57
35 341 310 283 280 300 319 346 349 336 16 17 50 43 12 360 21 10 6 11 345 332 344 355 7 8 355 11 30 25 33 37 39 41 35 34 35 46 41 40 35 52 52 55